TimeEET,TemperatureF,Dew PointF,Humidity,Sea Level PressureIn,VisibilityMPH,Wind Direction,Wind SpeedMPH,Gust SpeedMPH,PrecipitationIn,Events,Conditions,WindDirDegrees,DateUTC
12:20 AM,26.6,15.8,64,29.95,6.2,Variable,3.5,-,N/A,,Scattered Clouds,0,2013-01-19 22:20:00
12:50 AM,28.4,17.6,64,29.95,6.2,Variable,6.9,-,N/A,,Scattered Clouds,0,2013-01-19 22:50:00
1:20 AM,30.2,15.8,55,29.95,6.2,West,4.6,-,N/A,,Scattered Clouds,270,2013-01-19 23:20:00
1:50 AM,30.2,17.6,60,29.95,6.2,West,6.9,-,N/A,,Scattered Clouds,260,2013-01-19 23:50:00
2:00 AM,29,17,49,,12,West,6.9,,,,Partly Cloudy,260,2013-01-20 00:00:00
2:20 AM,32.0,17.6,55,29.95,6.2,WNW,5.8,-,N/A,,Mostly Cloudy,290,2013-01-20 00:20:00
2:50 AM,30.2,19.4,64,29.95,6.2,West,12.7,-,N/A,,Mostly Cloudy,270,2013-01-20 00:50:00
3:20 AM,30.2,23.0,75,29.95,6.2,WSW,18.4,-,N/A,,Mostly Cloudy,250,2013-01-20 01:20:00
3:50 AM,28.4,23.0,80,29.92,6.2,West,15.0,-,N/A,,Mostly Cloudy,260,2013-01-20 01:50:00
4:20 AM,26.6,23.0,86,29.95,6.2,WNW,11.5,-,N/A,,Mostly Cloudy,300,2013-01-20 02:20:00
4:50 AM,28.4,23.0,80,29.92,6.2,NW,10.4,21.9,N/A,,Mostly Cloudy,310,2013-01-20 02:50:00
5:20 AM,26.6,23.0,86,29.95,6.2,West,8.1,-,N/A,,Mostly Cloudy,280,2013-01-20 03:20:00
5:50 AM,26.6,23.0,86,29.95,6.2,NW,10.4,-,N/A,,Mostly Cloudy,320,2013-01-20 03:50:00
6:20 AM,26.6,23.0,86,29.95,6.2,WSW,6.9,-,N/A,,Mostly Cloudy,250,2013-01-20 04:20:00
6:50 AM,26.6,23.0,86,29.98,6.2,WNW,8.1,-,N/A,,Mostly Cloudy,290,2013-01-20 04:50:00
7:20 AM,24.8,23.0,93,29.98,6.2,West,9.2,-,N/A,,Scattered Clouds,280,2013-01-20 05:20:00
7:50 AM,26.6,23.0,86,29.98,6.2,West,8.1,-,N/A,,Scattered Clouds,270,2013-01-20 05:50:00
8:00 AM,26,24,88,,12,West,8.1,,,,Partly Cloudy,270,2013-01-20 06:00:00
8:20 AM,26.6,24.8,93,29.98,6.2,West,6.9,-,N/A,,Scattered Clouds,270,2013-01-20 06:20:00
8:50 AM,26.6,23.0,86,29.98,6.2,West,6.9,-,N/A,,Scattered Clouds,280,2013-01-20 06:50:00
9:20 AM,28.4,24.8,86,29.98,6.2,West,10.4,-,N/A,,Scattered Clouds,260,2013-01-20 07:20:00
9:50 AM,28.4,24.8,86,29.98,6.2,West,16.1,-,N/A,,Scattered Clouds,270,2013-01-20 07:50:00
10:20 AM,30.2,24.8,80,29.98,6.2,West,13.8,-,N/A,,Mostly Cloudy,270,2013-01-20 08:20:00
10:50 AM,30.2,24.8,80,29.98,6.2,West,13.8,-,N/A,,Mostly Cloudy,270,2013-01-20 08:50:00
11:20 AM,30.2,24.8,80,29.98,6.2,West,13.8,-,N/A,,Scattered Clouds,270,2013-01-20 09:20:00
11:50 AM,30.2,24.8,80,29.98,6.2,West,12.7,-,N/A,,Scattered Clouds,260,2013-01-20 09:50:00
12:20 PM,30.2,24.8,80,29.98,6.2,West,12.7,-,N/A,,Scattered Clouds,280,2013-01-20 10:20:00
12:50 PM,32.0,24.8,75,29.98,6.2,West,11.5,-,N/A,,Scattered Clouds,280,2013-01-20 10:50:00
1:20 PM,30.2,24.8,80,29.98,6.2,West,15.0,-,N/A,,Scattered Clouds,260,2013-01-20 11:20:00
1:50 PM,30.2,24.8,80,29.98,6.2,West,12.7,-,N/A,,Scattered Clouds,270,2013-01-20 11:50:00
2:00 PM,31,24,67,,12,West,12.7,,,,Partly Cloudy,270,2013-01-20 12:00:00
2:20 PM,30.2,24.8,80,29.98,6.2,West,12.7,-,N/A,,Scattered Clouds,270,2013-01-20 12:20:00
2:50 PM,28.4,24.8,86,29.98,6.2,West,13.8,-,N/A,,Scattered Clouds,270,2013-01-20 12:50:00
3:20 PM,28.4,23.0,80,30.01,6.2,WSW,11.5,-,N/A,,Scattered Clouds,250,2013-01-20 13:20:00
3:50 PM,28.4,21.2,74,30.01,6.2,WSW,10.4,-,N/A,,Scattered Clouds,250,2013-01-20 13:50:00
4:20 PM,26.6,21.2,80,30.01,6.2,West,11.5,-,N/A,,Scattered Clouds,260,2013-01-20 14:20:00
4:50 PM,24.8,21.2,86,29.98,6.2,West,11.5,-,N/A,,Scattered Clouds,280,2013-01-20 14:50:00
5:20 PM,24.8,21.2,86,30.01,6.2,West,11.5,-,N/A,,Scattered Clouds,270,2013-01-20 15:20:00
5:50 PM,24.8,21.2,86,30.01,6.2,West,10.4,-,N/A,,Scattered Clouds,270,2013-01-20 15:50:00
6:20 PM,23.0,19.4,86,30.01,6.2,WSW,8.1,-,N/A,,Scattered Clouds,250,2013-01-20 16:20:00
6:50 PM,23.0,19.4,86,30.01,6.2,West,6.9,-,N/A,,Scattered Clouds,260,2013-01-20 16:50:00
7:20 PM,21.2,17.6,86,30.01,6.2,WSW,6.9,-,N/A,,Scattered Clouds,240,2013-01-20 17:20:00
7:50 PM,23.0,17.6,80,30.04,6.2,WSW,10.4,-,N/A,,Scattered Clouds,250,2013-01-20 17:50:00
8:00 PM,22,19,82,,12,WSW,9.2,,,,Partly Cloudy,250,2013-01-20 18:00:00
8:20 PM,21.2,15.8,80,30.01,6.2,WSW,6.9,-,N/A,,Scattered Clouds,240,2013-01-20 18:20:00
8:50 PM,19.4,15.8,86,30.04,6.2,WSW,6.9,-,N/A,,Scattered Clouds,240,2013-01-20 18:50:00
9:20 PM,19.4,15.8,86,30.04,6.2,West,10.4,-,N/A,,Scattered Clouds,280,2013-01-20 19:20:00
9:50 PM,17.6,14.0,86,30.04,6.2,West,9.2,-,N/A,,Scattered Clouds,260,2013-01-20 19:50:00
10:20 PM,17.6,14.0,86,30.04,6.2,WSW,10.4,-,N/A,,Scattered Clouds,250,2013-01-20 20:20:00
10:50 PM,17.6,14.0,86,30.04,6.2,West,8.1,-,N/A,,Scattered Clouds,270,2013-01-20 20:50:00
11:20 PM,23.0,17.6,80,30.04,6.2,West,11.5,-,N/A,,Scattered Clouds,260,2013-01-20 21:20:00
11:50 PM,24.8,19.4,80,30.04,6.2,WSW,11.5,-,N/A,,Scattered Clouds,250,2013-01-20 21:50:00